Weather History for Litchfield, IL

Change the Weather History Date:

Friday, October 12, 2012

  Actual Average (KSPI) Record (KSPI)
Temperature  
Mean Temperature 54 °F 56 °F  
Max Temperature 64 °F 68 °F 89 °F (1962)
Min Temperature 45 °F 45 °F 24 °F (1987)
Degree Days  
Heating Degree Days 10 9  
Month to date heating degree days 95  
Since 1 July heating degree days 176  
Cooling Degree Days 0 1  
Month to date cooling degree days 14  
Year to date cooling degree days 1113  
Growing Degree Days 4 (Base 50)    
Moisture  
Dew Point 44 °F    
Average Humidity 70    
Maximum Humidity 80    
Minimum Humidity 53    
Precipitation  
Precipitation 0.00 in 0.10 in 1.86 in (1969)
Month to date precipitation 1.18  
Year to date precipitation 29.73  
Snow  
Snow 0.00 in 0.00 in T in (2006)
Month to date snowfall 0.0  
Since 1 July snowfall 0.0  
Since 1 September snowfall 0.0  
Snow Depth -    
Sea Level Pressure  
Sea Level Pressure 30.28 in    
Wind  
Wind Speed 7 mph (ENE)    
Max Wind Speed 20 mph    
Max Gust Speed 25 mph    
Visibility 10 miles    
Events      
T = Trace of Precipitation, MM = Missing Value Source: NWS Daily Summary

Daily Weather History Graph

Daily Weather History Graph

Search for Another Location

Airport:

Trip Planner

Search our weather history database for the weather conditions in past years. The results will help you decide how hot, cold, wet, or windy it might be!

Date:

Astronomy

Oct. 12, 2012 Rise Set
Actual Time 7:05 AM CDT 6:23 PM CDT
Civil Twilight 6:38 AM CDT 6:50 PM CDT
Nautical Twilight 6:07 AM CDT 7:21 PM CDT
Astronomical Twilight 5:36 AM CDT 7:52 PM CDT
Moon 3:50 AM CDT (10/12) 4:32 PM CDT (10/12)
Length of Visible Light 12h 11m
Length of Day
11h 17m
Waning Crescent, 10% of the Moon is Illuminated
Oct 12
Waning Crescent
Oct 15
New
Oct 21
First Quarter
Oct 29
Full
Nov 6
Last Quarter

Hourly Weather History & Observations

Time (CDT) Temp. Windchill Dew Point Humidity Pressure Visibility Wind Dir Wind Speed Gust Speed Precip Events Conditions
12:15 AM 54.9 °F - 44.8 °F 69% 30.19 in 10.0 mi SSW 3.5 mph - N/A   Mostly Cloudy
12:35 AM 54.5 °F - 45.7 °F 72% 30.20 in 10.0 mi SSW 3.5 mph - N/A   Mostly Cloudy
12:55 AM 54.9 °F - 45.7 °F 71% 30.20 in 10.0 mi Calm Calm - N/A   Mostly Cloudy
1:15 AM 55.0 °F - 45.9 °F 71% 30.20 in 10.0 mi Calm Calm - N/A   Mostly Cloudy
1:35 AM 55.0 °F - 45.5 °F 70% 30.21 in 10.0 mi Calm Calm - N/A   Scattered Clouds
1:55 AM 54.7 °F - 46.2 °F 73% 30.21 in 10.0 mi Calm Calm - N/A   Scattered Clouds
3:15 AM 54.1 °F - 47.5 °F 78% 30.23 in 10.0 mi North 5.8 mph - N/A   Overcast
3:35 AM 53.8 °F - 45.9 °F 75% 30.23 in 10.0 mi North 10.4 mph - N/A   Scattered Clouds
3:55 AM 51.3 °F - 43.0 °F 73% 30.23 in 10.0 mi NNE 16.1 mph 21.9 mph N/A   Scattered Clouds
4:15 AM 49.5 °F - 42.8 °F 78% 30.23 in 10.0 mi NNE 13.8 mph - N/A   Clear
4:35 AM 48.9 °F - 41.9 °F 77% 30.24 in 10.0 mi NNE 13.8 mph - N/A   Clear
4:55 AM 48.4 °F - 41.7 °F 78% 30.25 in 10.0 mi NNE 13.8 mph 18.4 mph N/A   Clear
5:15 AM 47.5 °F - 41.2 °F 79% 30.26 in 10.0 mi NNE 12.7 mph - N/A   Clear
5:35 AM 47.1 °F - 41.0 °F 79% 30.27 in 10.0 mi North 10.4 mph - N/A   Clear
5:55 AM 46.9 °F - 39.7 °F 76% 30.28 in 10.0 mi NNE 13.8 mph 18.4 mph N/A   Clear
6:15 AM 46.8 °F - 38.8 °F 74% 30.28 in 10.0 mi NNE 12.7 mph 19.6 mph N/A   Clear
6:35 AM 46.4 °F 41.1 °F 38.5 °F 74% 30.29 in 10.0 mi NNE 11.5 mph - N/A   Clear
6:55 AM 45.5 °F 41.3 °F 38.5 °F 76% 30.31 in 10.0 mi NE 8.1 mph - N/A   Clear
7:15 AM 46.0 °F 39.9 °F 38.3 °F 74% 30.31 in 10.0 mi NE 13.8 mph 20.7 mph N/A   Clear
7:35 AM 46.0 °F 41.0 °F 38.3 °F 74% 30.33 in 10.0 mi NE 10.4 mph 18.4 mph N/A   Clear
7:55 AM 46.4 °F 41.5 °F 38.3 °F 73% 30.34 in 10.0 mi NE 10.4 mph - N/A   Clear
8:15 AM 46.6 °F - 38.5 °F 73% 30.34 in 10.0 mi NE 13.8 mph 20.7 mph N/A   Clear
8:35 AM 47.3 °F - 39.2 °F 73% 30.34 in 10.0 mi NE 13.8 mph 19.6 mph N/A   Clear
8:55 AM 48.9 °F - 40.1 °F 72% 30.34 in 10.0 mi NE 19.6 mph 25.3 mph N/A   Clear
9:15 AM 49.6 °F - 40.6 °F 71% 30.35 in 10.0 mi NE 17.3 mph 21.9 mph N/A   Clear
9:55 AM 51.3 °F - 41.4 °F 69% 30.35 in 10.0 mi ENE 13.8 mph 24.2 mph N/A   Clear
10:15 AM 52.3 °F - 42.1 °F 68% 30.37 in 10.0 mi ENE 10.4 mph 19.6 mph N/A   Clear
10:35 AM 53.8 °F - 41.9 °F 64% 30.37 in 10.0 mi ENE 15.0 mph - N/A   Clear
11:15 AM 55.4 °F - 41.7 °F 60% 30.37 in 10.0 mi East 10.4 mph 16.1 mph N/A   Scattered Clouds
11:35 AM 56.8 °F - 42.6 °F 59% 30.38 in 10.0 mi East 8.1 mph - N/A   Clear
11:55 AM 57.2 °F - 42.4 °F 58% 30.38 in 10.0 mi ENE 4.6 mph - N/A   Scattered Clouds
12:15 PM 59.0 °F - 43.3 °F 56% 30.37 in 10.0 mi East 10.4 mph - N/A   Clear
12:55 PM 60.1 °F - 43.7 °F 55% 30.36 in 10.0 mi East 11.5 mph 18.4 mph N/A   Clear
1:35 PM 61.5 °F - 45.0 °F 55% 30.35 in 10.0 mi ENE 5.8 mph - N/A   Clear
2:35 PM 62.2 °F - 45.1 °F 54% 30.31 in 10.0 mi ENE 5.8 mph - N/A   Clear
3:15 PM 63.9 °F - 46.6 °F 53% 30.30 in 10.0 mi East 8.1 mph - N/A   Clear
3:55 PM 64.4 °F - 47.5 °F 54% 30.29 in 10.0 mi ESE 6.9 mph - N/A   Clear
4:15 PM 64.2 °F - 46.8 °F 53% 30.28 in 10.0 mi East 6.9 mph - N/A   Clear
4:35 PM 63.9 °F - 46.9 °F 54% 30.28 in 7.0 mi ESE 3.5 mph - N/A   Clear
4:55 PM 63.7 °F - 47.1 °F 55% 30.27 in 7.0 mi East 8.1 mph - N/A   Clear
5:15 PM 62.4 °F - 47.1 °F 57% 30.27 in 10.0 mi East 5.8 mph - N/A   Clear
5:35 PM 61.7 °F - 47.5 °F 60% 30.27 in 10.0 mi ESE 5.8 mph - N/A   Clear
6:15 PM 59.0 °F - 47.1 °F 65% 30.26 in 10.0 mi East 4.6 mph - N/A   Clear
6:55 PM 57.4 °F - 46.9 °F 68% 30.26 in 10.0 mi ENE 3.5 mph - N/A   Clear
7:15 PM 55.9 °F - 46.9 °F 72% 30.26 in 10.0 mi East 4.6 mph - N/A   Clear
7:35 PM 55.6 °F - 46.9 °F 73% 30.26 in 10.0 mi East 3.5 mph - N/A   Clear
8:15 PM 53.6 °F - 46.9 °F 78% 30.25 in 10.0 mi East 5.8 mph - N/A   Clear
8:35 PM 53.6 °F - 47.3 °F 79% 30.26 in 10.0 mi East 4.6 mph - N/A   Clear
8:55 PM 53.6 °F - 47.3 °F 79% 30.26 in 10.0 mi East 5.8 mph - N/A   Clear
9:15 PM 53.6 °F - 47.5 °F 80% 30.25 in 10.0 mi East 5.8 mph - N/A   Clear
9:35 PM 53.6 °F - 47.3 °F 79% 30.25 in 10.0 mi ESE 6.9 mph - N/A   Clear
9:55 PM 54.3 °F - 47.7 °F 78% 30.24 in 10.0 mi ESE 6.9 mph - N/A   Clear
10:15 PM 54.3 °F - 47.7 °F 78% 30.24 in 10.0 mi ESE 5.8 mph - N/A   Clear
10:35 PM 54.0 °F - 47.5 °F 79% 30.24 in 7.0 mi SE 6.9 mph - N/A   Clear
11:35 PM 54.3 °F - 46.9 °F 76% 30.23 in 1.2 mi SE 11.5 mph - N/A   Haze
11:55 PM 54.3 °F - 46.9 °F 76% 30.23 in 1.5 mi SE 9.2 mph - N/A   Haze